Notices

What's New in latest Release from April 7th, 2021:

- Updated Glossary, including Speed of Maximum Gust, and Total Hourly Precipitation

- Updated national and regional climate services offices contacts and prices information

- Addition of station inventory lists for 1981-2010, 1971-2000, and 1961-1990 Normals.

If you haven't already, please take our survey and provide feedback about our website: https://eccc.sondage-survey.ca/f/LanguageSelection.aspx?s=442ca660-fcf1-47c0-95a9-59707d6fd709

Hourly Data Report for April 13, 2018

KENORA A
ONTARIO
Current Station Operator: NAVCAN

49°47'18.000" N
94°21'47.000" W
409.70 m
6034076
71850
YQK

Download Data

Hourly Data (April 2018)
Hourly Data Report for April 13, 2018
TIME
LST
Temp Definition
°C
Dew Point Definition
°C
Rel Hum Definition
%
Precip. Amount Definition
mm

Wind Dir Definition
10's deg

Wind Spd Definition
km/h
Visibility Definition
km
Stn Press Definition
kPa
Hmdx Definition


Wind Chill Definition


Weather Definition


00:00 -6.0 -15.0 49   36 10 24.1 96.69   -10 Clear
01:00 -6.8 -15.3 51   36 7 24.1 96.77   -10 LegendNANA
02:00 -7.9 -15.6 54   1 9 24.1 96.79   -12 LegendNANA
03:00 -9.0 -16.0 57   1 10 24.1 96.77   -14 Clear
04:00 -9.9 -16.9 57   3 8 24.1 96.80   -14 LegendNANA
05:00 -10.2 -17.7 55   2 8 24.1 96.98   -15 LegendNANA
06:00 -10.7 -17.5 58   1 10 24.1 97.02   -16 Mainly Clear
07:00 -9.7 -17.5 53   1 13 24.1 97.06   -16 LegendNANA
08:00 -7.6 -16.9 48   3 13 24.1 97.14   -13 LegendNANA
09:00 -6.4 -17.2 43   5 13 24.1 97.27   -12 Mainly Clear
10:00 -5.7 -16.6 42   7 18 24.1 97.34   -12 LegendNANA
11:00 -4.0 -15.4 41   5 18 24.1 97.41   -10 LegendNANA
12:00 -3.0 -15.2 39   2 16 24.1 97.43   -8 Mainly Clear
13:00 -2.5 -14.9 38   2 23 24.1 97.45   -9 LegendNANA
14:00 -2.3 -14.9 38   3 19 24.1 97.50   -8 LegendNANA
15:00 -1.6 -14.5 37   2 17 24.1 97.55   -7 Mainly Clear
16:00 -1.2 -13.6 39   4 15 24.1 97.61   -6 LegendNANA
17:00 -1.5 -15.3 34   5 20 24.1 97.64   -7 LegendNANA
18:00 -1.7 -15.6 34   4 14 24.1 97.73   -6 Mainly Clear
19:00 -2.8 -15.7 37   3 11 24.1 97.83   -7 LegendNANA
20:00 -4.0 -16.1 39   3 9 24.1 97.89   -8 LegendNANA
21:00 -4.6 -15.9 41   2 8 24.1 97.97   -8 Clear
22:00 -5.6 -16.0 44   2 7 24.1 97.99   -9 LegendNANA
23:00 -5.9 -16.4 44   3 15 24.1 97.96   -12 LegendNANA

Notes on Data Quality.

Legend

  • E = Estimated
  • M = Missing
  • NA = Not Available*
  • [empty] = Indicates an unobserved value
Date modified: